Regional Weather Roundup
Issued by NWS

Home | Current Version | Previous Version | Graphics & Text | Print | Product List | Glossary On
Versions: 1 2 3 4 5 6 7 8 9 10 11 12 13 14 15 16 17 18 19 20 21 22 23 24 25 26 27 28 29 30 31 32 33 34 35 36 37 38 39 40 41 42 43 44 45 46 47 48 49 50
000
ASUS43 KMKX 180021
RWRWI

WISCONSIN REGIONAL WEATHER ROUNDUP
NATIONAL WEATHER SERVICE MILWAUKEE/SULLIVAN WI
700 PM CDT THU AUG 17 2017

NOTE: "FAIR" INDICATES FEW OR NO CLOUDS BELOW 12,000 FEET WITH NO
SIGNIFICANT WEATHER AND/OR OBSTRUCTIONS TO VISIBILITY.

WIZ001-002-006>008-014>016-023>028-180100-
NORTHWEST WISCONSIN

CITY           SKY/WX    TMP DP  RH WIND       PRES   REMARKS
SUPERIOR ARPT    N/A     65  61  86 N12G22    29.75R
6HR MIN TEMP:  63; 6HR MAX TEMP:  65; 6HR PCP:  0.01;

ASHLAND        CLOUDY    63  61  93 NW9       29.70R
6HR MIN TEMP:  62; 6HR MAX TEMP:  65; 6HR PCP:  0.13;

HAYWARD        LGT RAIN  63  60  90 N7        29.73R FOG
6HR MIN TEMP:  62; 6HR MAX TEMP:  67; 6HR PCP:  0.07;

SIREN          CLOUDY    64  61  89 NW13G22   29.77R
6HR MIN TEMP:  62; 6HR MAX TEMP:  64; 6HR PCP:  0.02;

CUMBERLAND     CLOUDY    63  59  88 NW14      29.75R FOG
RICE LAKE      CLOUDY    64  61  89 NW10G18   29.76R
6HR MIN TEMP:  63; 6HR MAX TEMP:  73;

CHETEK         CLOUDY    64  62  91 NW8G21    29.73R
6HR MIN TEMP:  63; 6HR MAX TEMP:  74;

LADYSMITH      CLOUDY    64  62  93 NW13G18   29.72R
6HR MIN TEMP:  64; 6HR MAX TEMP:  74; 6HR PCP:  0.04;

EAU CLAIRE     CLOUDY    66  60  81 NW13      29.73R
6HR MIN TEMP:  65; 6HR MAX TEMP:  73; 6HR PCP:  0.04;

MENOMONIE      CLOUDY    66  62  86 NW13G18   29.75R
6HR MIN TEMP:  65; 6HR MAX TEMP:  74;

NEW RICHMOND   CLOUDY    67  62  84 NW8       29.77R
6HR MIN TEMP:  63; 6HR MAX TEMP:  67;

OSCEOLA        CLOUDY    68  66  93 NW9       29.80R
6HR MIN TEMP:  64; 6HR MAX TEMP:  69;

$$

WIZ003>005-009-010-017-018-180100-
NORTH CENTRAL WISCONSIN

CITY           SKY/WX    TMP DP  RH WIND       PRES   REMARKS
MANITOWISH WTR CLOUDY    60  60 100 N14G20    29.65R
6HR MIN TEMP:  59; 6HR MAX TEMP:  68; 6HR PCP:  0.16;

ARBOR VITAE    CLOUDY    62  60  92 NW14G22   29.63R
6HR MIN TEMP:  62; 6HR MAX TEMP:  72;

WOODRUFF       CLOUDY    62  60  92 NW14G22   29.63R
6HR MIN TEMP:  62; 6HR MAX TEMP:  72;

RHINELANDER    CLOUDY    65  64  97 NW16G23   29.62R
6HR MIN TEMP:  66; 6HR MAX TEMP:  71; 6HR PCP:  0.09;

EAGLE RIVER    DRIZZLE   65  64  98 NW15G22   29.60R
6HR MIN TEMP:  65; 6HR MAX TEMP:  72;

LAND O LAKES   LGT RAIN  64  63  96 NW9G16    29.62R
6HR MIN TEMP:  66; 6HR MAX TEMP:  74;

PHILLIPS       CLOUDY    60  60  98 NW10G17   29.68R
6HR MIN TEMP:  61; 6HR MAX TEMP:  72; 6HR PCP:  0.32;

TOMAHAWK         N/A     64  62  91 W10G16    29.64R
6HR MIN TEMP:  64; 6HR MAX TEMP:  71;

MEDFORD        CLOUDY    62  59  90 NW15      29.67R
6HR MIN TEMP:  62; 6HR MAX TEMP:  71;

MERRILL        CLOUDY    66  66 100 W13       29.63R
$$

WIZ029-030-035-036-043>047-180100-
CENTRAL WISCONSIN

CITY           SKY/WX    TMP DP  RH WIND       PRES   REMARKS
WAUSAU         CLOUDY    66  63  90 W17G26    29.61R
6HR MIN TEMP:  66; 6HR MAX TEMP:  73; 6HR PCP:  0.06;

MOSINEE        CLOUDY    64  64 100 W17G23    29.64R
MARSHFIELD     LGT RAIN  63  60  90 W14G28    29.67R FOG
6HR MIN TEMP:  63; 6HR MAX TEMP:  74; 6HR PCP:  0.17;

STEVENS POINT  CLOUDY    64  63  96 W15G24    29.65R
6HR MIN TEMP:  64; 6HR MAX TEMP:  73;

WAUPACA        CLOUDY    71  65  82 W12G24    29.62R
6HR MIN TEMP:  71; 6HR MAX TEMP:  76;

WAUTOMA        CLOUDY    67  64  90 W16G28    29.66R
6HR MIN TEMP:  67; 6HR MAX TEMP:  77; 6HR PCP:  0.03;

WISC RAPIDS    CLOUDY    66  63  90 W13       29.68R
6HR MIN TEMP:  66; 6HR MAX TEMP:  75; 6HR PCP:  0.04;

CAMP DOUGLAS   MOCLDY    66  61  82 W12       29.71R
6HR MIN TEMP:  66; 6HR MAX TEMP:  76; 6HR PCP: TRACE;

$$

WIZ011>013-019>022-031-037>040-048>050-180100-
NORTHEAST WISCONSIN

CITY           SKY/WX    TMP DP  RH WIND       PRES   REMARKS
ANTIGO         CLOUDY    68  66  92 NW12      29.59R
6HR MIN TEMP:  66; 6HR MAX TEMP:  71; 6HR PCP:  0.04;

SHAWANO        MOCLDY    74  67  78 SW12G18   29.55S
6HR MIN TEMP:  72; 6HR MAX TEMP:  80; 6HR PCP:  0.03;

OCONTO         CLOUDY    70  67  92 SW7       29.54R
6HR MIN TEMP:  70; 6HR MAX TEMP:  81; 6HR PCP:  0.01;

STURGEON BAY   CLOUDY    73  66  78 SW13G23   29.55S
6HR MIN TEMP:  72; 6HR MAX TEMP:  78; 6HR PCP:  0.08;

GREEN BAY      CLOUDY    73  68  84 SW15G25   29.57R
6HR MIN TEMP:  71; 6HR MAX TEMP:  79; 6HR PCP: TRACE;

MANITOWOC      LGT RAIN  72  66  81 W9        29.60R
6HR MIN TEMP:  71; 6HR MAX TEMP:  80; 6HR PCP: TRACE;

APPLETON       CLOUDY    70  68  94 W15       29.59R
CLINTONVILLE   CLOUDY    70  64  83 W15G21    29.59R
OSHKOSH        LGT RAIN  70  66  87 W13G22    29.62R
6HR MIN TEMP:  70; 6HR MAX TEMP:  78; 6HR PCP: TRACE;

$$

WIZ032>034-041-042-053>061-180100-
SOUTHWEST WISCONSIN

CITY           SKY/WX    TMP DP  RH WIND       PRES   REMARKS
LA CROSSE      CLOUDY    73  63  70 NW15      29.73R
6HR MIN TEMP:  72; 6HR MAX TEMP:  78; 6HR PCP: TRACE;

SPARTA         CLOUDY    67  61  81 W10G17    29.73R
6HR MIN TEMP:  67; 6HR MAX TEMP:  73;

VIROQUA        CLOUDY    67  63  88 NW9       29.76R
6HR MIN TEMP:  67; 6HR MAX TEMP:  70;

BOSCOBEL       CLOUDY    73  64  73 W7        29.74S
6HR MIN TEMP:  71; 6HR MAX TEMP:  77; 6HR PCP:  0.03;

PRAIRIE DU CHI CLOUDY    73  63  68 W9        29.75R
6HR MIN TEMP:  71; 6HR MAX TEMP:  75; 6HR PCP:  0.01;

PLATTEVILLE    CLOUDY    71  67  87 W12G21    29.77S
6HR MIN TEMP:  69; 6HR MAX TEMP:  75; 6HR PCP:  0.06;

$$

WIZ056-057-062-063-064-067-068-180100-
SOUTH CENTRAL WISCONSIN

CITY           SKY/WX    TMP DP  RH WIND       PRES   REMARKS
REEDSBURG      CLOUDY    67  65  93 W12G18    29.71R
6HR MIN TEMP:  67; 6HR MAX TEMP:  74;

BARABOO/DELLS  CLOUDY    67  61  83 W15G25    29.70R
6HR MIN TEMP:  67; 6HR MAX TEMP:  73; 6HR PCP:  0.03;

LONE ROCK      CLOUDY    71  64  78 W14       29.72R
6HR MIN TEMP:  70; 6HR MAX TEMP:  76; 6HR PCP:  0.02;

MINERAL POINT  CLOUDY    70  66  88 W12G20    29.76R
MADISON        LGT RAIN  69  65  86 W10       29.70R FOG
6HR MIN TEMP:  70; 6HR MAX TEMP:  77; 6HR PCP:  0.05;

MIDDLETON      CLOUDY    69  68  95 W18G26    29.71R
6HR MIN TEMP:  69; 6HR MAX TEMP:  78; 6HR PCP:  0.08;

WATERTOWN      CLOUDY    71  67  88 SW12      29.68S
6HR MIN TEMP:  71; 6HR MAX TEMP:  78;

MONROE         CLOUDY    70  63  78 W21G31    29.75R
JANESVILLE     CLOUDY    75  63  64 W14       29.72R
$$

WIZ051-052-058>065-066-070>072-180100-
SOUTHEAST WISCONSIN

CITY           SKY/WX    TMP DP  RH WIND       PRES   REMARKS
MILWAUKEE      MOCLDY    77  64  64 W16G32    29.68R
6HR MIN TEMP:  76; 6HR MAX TEMP:  81; 6HR PCP:  0.01;

WAUKESHA       CLOUDY    70  63  78 W15G23    29.70R
MILWAUKEE/TIMM CLOUDY    72  63  73 W20G29    29.68
RACINE         MOCLDY    74  67  78 W13G21    29.70S
6HR MIN TEMP:  71; 6HR MAX TEMP:  81; 6HR PCP:  0.16;

KENOSHA        CLOUDY    76  64  66 W15G29    29.70R
6HR MIN TEMP:  75; 6HR MAX TEMP:  81; 6HR PCP:  0.02;

FOND DU LAC    CLOUDY    73  63  70 W15G21    29.63R
6HR MIN TEMP:  71; 6HR MAX TEMP:  78; 6HR PCP:  0.03;

SHEBOYGAN      MOCLDY    73  67  81 SW14G22   29.62R
6HR MIN TEMP:  72; 6HR MAX TEMP:  80; 6HR PCP: TRACE;

WEST BEND      PTCLDY    72  64  78 W13G22    29.65S
JUNEAU         CLOUDY    70  64  82 SW18      29.68S
6HR MIN TEMP:  69; 6HR MAX TEMP:  76;

$$

LSZ147-162-180100-
LAKE SUPERIOR

STATION/POSITION TIME  TEMP    WIND        PRES    WAVE
                       AIR SEA DIR/SP/G            HT/PER
                 (UTC) (F)     (DEG/KT/KT) (MB)    (FT/S)
W MID LAKE BUOY  2350   60 60  340/ 16/ 19 1002.4R   5/ 6
DEVILS ISLAND    0000   63     320/ 14/ 15 1005.1R
SAXON HARBOR     2330   62     350/ 11/ 14 1004.7R
$$

LMZ867-665-643>646-180100-
LAKE MICHIGAN

STATION/POSITION TIME  TEMP    WIND        PRES    WAVE
                       AIR SEA DIR/SP/G            HT/PER
                 (UTC) (F)     (DEG/KT/KT) (MB)    (FT/S)
S GREEN BAY BUOY 0000   72 72  220/ 16/ 19 1000.2
N MID LAKE BUOY  2350   69 68  190/ 16/ 17 1000.6F   5/



USA.gov is the U.S. government's official web portal to all federal, state and local government web resources and services.